Hellevaroitus Alkaa: 23-07-2018 05:00 Loppuu: 24-07-2018 01:00 varoitus: Hellevaroitus Taso: Keltainen info button

Weather Underground säähistoriasivu

Päivittäin yhteenveto Heinäkuu 23, 2018 Yksiköt:  Metriset    Englantilaiset   Molemmat
« Edellinen Päivä
Seuraava Päivä »
Päivittäin Viikoittain Kuukausittain Vuosittain Mukautettu
  Tämänhetkinen: Ylin: Alin: Keskiarvo:
Lämpötila: -6.7 °C -17.8 °C -8.9 °C -8.2 °C
Kastepiste: -8 °C -17.8 °C -9.2 °C -8.6 °C
Kosteus: 86 % Humidity % 86 % 95 %
Tuulen nopeus: 0 km/h 0 km/h 0 km/h 0.8 km/h
Tuulenpuuska: 0 km/h 0 km/h - -
Tuuli:Calm - - NW
Ilmanpaine: 34242.6 hPa 0 hPa 34178.3 hPa -
Sade: 0 mm      
Historical Graphs
 
 
Taulukkotiedot Heinäkuu 23, 2018
Aika Lämpötila Kastepiste Ilmanpaine Tuuli Tuulen nopeus Tuulenpuuska Kosteus Sademäärä (tunneittain)
-17.8 °C -17.8 °C 0 hPa Calm     Humidity % 0 mm
00:04 -7.1 °C -8.1 °C 34178.3 hPa Calm     89 % 0 mm
00:09 -7.1 °C -8 °C 34178.3 hPa NW 3.1 km/h 0.3 km/h 90 % 0 mm
00:14 -7.1 °C -8 °C 34181.7 hPa Calm     90 % 0 mm
00:19 -7.1 °C -8.1 °C 34185.1 hPa West 5.5 km/h 0.8 km/h 90 % 0 mm
00:24 -7.1 °C -7.9 °C 34185.1 hPa NW 8.2 km/h 0.3 km/h 91 % 0 mm
00:28 -7.1 °C -7.9 °C 34185.1 hPa Calm     91 % 0 mm
00:32 -7.1 °C -7.9 °C 34188.4 hPa NNW 5.5 km/h 0.8 km/h 91 % 0 mm
00:38 -7.2 °C -8 °C 34191.8 hPa NW 10.9 km/h 1.6 km/h 91 % 0 mm
00:43 -7.2 °C -8.1 °C 34191.8 hPa Calm     91 % 0 mm
00:48 -7.3 °C -8.2 °C 34191.8 hPa Calm     91 % 0 mm
00:53 -7.4 °C -8.1 °C 34195.2 hPa NW 6 km/h   92 % 0 mm
00:58 -7.4 °C -8.2 °C 34191.8 hPa Calm     92 % 0 mm
01:03 -7.5 °C -8.2 °C 34195.2 hPa Calm     92 % 0 mm
01:08 -7.6 °C -8.2 °C 34191.8 hPa Calm     93 % 0 mm
01:14 -7.6 °C -8.2 °C 34195.2 hPa WNW 2.6 km/h 0.3 km/h 93 % 0 mm
01:18 -7.6 °C -8.3 °C 34195.2 hPa Calm     93 % 0 mm
01:23 -7.7 °C -8.2 °C 34195.2 hPa WNW 10.9 km/h 2.9 km/h 94 % 0 mm
01:29 -7.7 °C -8.2 °C 34195.2 hPa WNW 3.1 km/h   94 % 0 mm
01:33 -7.7 °C -8.3 °C 34195.2 hPa Calm     94 % 0 mm
01:39 -7.8 °C -8.4 °C 34198.6 hPa Calm     94 % 0 mm
01:43 -7.8 °C -8.4 °C 34202 hPa Calm     94 % 0 mm
01:48 -7.8 °C -8.3 °C 34205.4 hPa Calm     95 % 0 mm
01:54 -7.9 °C -8.3 °C 34205.4 hPa Calm     95 % 0 mm
01:58 -7.9 °C -8.5 °C 34205.4 hPa Calm     94 % 0 mm
02:04 -7.9 °C -8.4 °C 34208.8 hPa Calm     95 % 0 mm
02:09 -8 °C -8.4 °C 34208.8 hPa Calm     95 % 0 mm
02:13 -8 °C -8.5 °C 34208.8 hPa Calm     95 % 0 mm
02:19 -8.1 °C -8.5 °C 34208.8 hPa WNW 3.1 km/h 0.5 km/h 95 % 0 mm
02:24 -8 °C -8.4 °C 34212.1 hPa Calm     96 % 0 mm
02:29 -8 °C -8.4 °C 34215.5 hPa Calm     96 % 0 mm
02:34 -8 °C -8.4 °C 34215.5 hPa Calm     96 % 0 mm
02:39 -8 °C -8.4 °C 34215.5 hPa Calm     96 % 0 mm
02:43 -8.1 °C -8.4 °C 34215.5 hPa Calm     96 % 0 mm
02:48 -8.1 °C -8.4 °C 34215.5 hPa Calm     96 % 0 mm
02:54 -8 °C -8.4 °C 34215.5 hPa NW 11.9 km/h 1.6 km/h 96 % 0 mm
02:58 -8 °C -8.4 °C 34215.5 hPa Calm     96 % 0 mm
03:03 -8.1 °C -8.4 °C 34215.5 hPa NW 2.6 km/h   96 % 0 mm
03:08 -8.1 °C -8.4 °C 34212.1 hPa Calm     96 % 0 mm
03:13 -8.1 °C -8.4 °C 34212.1 hPa Calm     96 % 0 mm
03:19 -8.2 °C -8.5 °C 34215.5 hPa NW 3.1 km/h 0.3 km/h 96 % 0 mm
03:23 -8.2 °C -8.5 °C 34215.5 hPa Calm     96 % 0 mm
03:28 -8.2 °C -8.5 °C 34215.5 hPa Calm     96 % 0 mm
03:34 -8.2 °C -8.6 °C 34215.5 hPa Calm     96 % 0 mm
03:38 -8.3 °C -8.7 °C 34215.5 hPa Calm     96 % 0 mm
03:44 -8.4 °C -8.8 °C 34218.9 hPa Calm     96 % 0 mm
03:49 -8.4 °C -8.8 °C 34218.9 hPa Calm     96 % 0 mm
03:53 -8.5 °C -8.9 °C 34215.5 hPa Calm     96 % 0 mm
03:59 -8.6 °C -8.9 °C 34218.9 hPa Calm     96 % 0 mm
04:03 -8.6 °C -8.9 °C 34218.9 hPa Calm     96 % 0 mm
04:09 -8.7 °C -9 °C 34218.9 hPa Calm     96 % 0 mm
04:14 -8.7 °C -9.1 °C 34218.9 hPa Calm     96 % 0 mm
04:18 -8.7 °C -9.1 °C 34218.9 hPa Calm     96 % 0 mm
04:24 -8.8 °C -9.1 °C 34218.9 hPa Calm     96 % 0 mm
04:29 -8.8 °C -9.1 °C 34218.9 hPa Calm     96 % 0 mm
04:34 -8.7 °C -9 °C 34218.9 hPa Calm     97 % 0 mm
04:39 -8.7 °C -9 °C 34218.9 hPa Calm     97 % 0 mm
04:44 -8.7 °C -9 °C 34218.9 hPa Calm     97 % 0 mm
04:49 -8.7 °C -9 °C 34222.3 hPa Calm     97 % 0 mm
04:53 -8.7 °C -9 °C 34225.7 hPa Calm     97 % 0 mm
04:58 -8.8 °C -9.1 °C 34222.3 hPa Calm     97 % 0 mm
05:03 -8.7 °C -9 °C 34225.7 hPa Calm     97 % 0 mm
05:08 -8.7 °C -9 °C 34225.7 hPa Calm     97 % 0 mm
05:13 -8.7 °C -9 °C 34225.7 hPa Calm     97 % 0 mm
05:18 -8.8 °C -9.1 °C 34225.7 hPa Calm     97 % 0 mm
05:24 -8.8 °C -9.1 °C 34225.7 hPa Calm     97 % 0 mm
05:28 -8.9 °C -9.2 °C 34225.7 hPa Calm     97 % 0 mm
05:33 -8.9 °C -9.2 °C 34229.1 hPa Calm     97 % 0 mm
05:38 -8.9 °C -9.2 °C 34229.1 hPa Calm     97 % 0 mm
05:43 -8.9 °C -9.2 °C 34232.5 hPa Calm     97 % 0 mm
05:49 -8.9 °C -9.2 °C 34232.5 hPa Calm     97 % 0 mm
05:53 -8.9 °C -9.2 °C 34232.5 hPa Calm     97 % 0 mm
05:58 -8.9 °C -9.2 °C 34235.8 hPa Calm     97 % 0 mm
06:04 -8.9 °C -9.2 °C 34235.8 hPa Calm     97 % 0 mm
06:08 -8.8 °C -8.8 °C 34235.8 hPa Calm     100 % 0 mm
06:14 -8.8 °C -8.8 °C 34235.8 hPa Calm     100 % 0 mm
06:18 -8.8 °C -8.8 °C 34235.8 hPa Calm     100 % 0 mm
06:24 -8.8 °C -8.8 °C 34235.8 hPa Calm     100 % 0 mm
06:29 -8.8 °C -9.1 °C 34235.8 hPa Calm     97 % 0 mm
06:33 -8.8 °C -8.8 °C 34235.8 hPa Calm     100 % 0 mm
06:39 -8.7 °C -8.7 °C 34235.8 hPa Calm     100 % 0 mm
06:44 -8.7 °C -8.7 °C 34235.8 hPa Calm     100 % 0 mm
06:49 -8.6 °C -8.6 °C 34235.8 hPa Calm     100 % 0 mm
06:54 -8.5 °C -8.5 °C 34235.8 hPa Calm     100 % 0 mm
06:58 -8.5 °C -8.5 °C 34239.2 hPa Calm     100 % 0 mm
07:04 -8.5 °C -8.5 °C 34239.2 hPa Calm     100 % 0 mm
07:08 -8.4 °C -8.4 °C 34235.8 hPa Calm     100 % 0 mm
07:13 -8.4 °C -8.4 °C 34239.2 hPa Calm     100 % 0 mm
07:18 -8.3 °C -8.3 °C 34239.2 hPa Calm     100 % 0 mm
07:24 -8.3 °C -8.3 °C 34239.2 hPa Calm     100 % 0 mm
07:28 -8.2 °C -8.4 °C 34239.2 hPa Calm     97 % 0 mm
07:33 -8.1 °C -8.4 °C 34235.8 hPa Calm     97 % 0 mm
07:39 -8 °C -8.3 °C 34235.8 hPa Calm     97 % 0 mm
07:43 -7.9 °C -8.3 °C 34235.8 hPa Calm     96 % 0 mm
07:48 -7.8 °C -8.2 °C 34235.8 hPa Calm     96 % 0 mm
07:53 -7.7 °C -8.2 °C 34235.8 hPa Calm     95 % 0 mm
07:58 -7.6 °C -8.1 °C 34239.2 hPa Calm     94 % 0 mm
08:04 -7.4 °C -8.1 °C 34239.2 hPa Calm     92 % 0 mm
08:08 -7.3 °C -8.2 °C 34242.6 hPa Calm     90 % 0 mm
08:14 -7.1 °C -8.1 °C 34242.6 hPa Calm     90 % 0 mm
08:18 -7 °C -8 °C 34242.6 hPa Calm     89 % 0 mm
08:23 -6.8 °C -7.9 °C 34242.6 hPa Calm     89 % 0 mm
08:29 -6.7 °C -7.9 °C 34242.6 hPa Calm     88 % 0 mm
08:33 -6.7 °C -8 °C 34242.6 hPa Calm     86 % 0 mm
Valkeala
Terveisin Weather Underground - 2 mb

Alkuperäinen skripti  Jim McMurry - jmcmurry@mwt.net Sovitettu myös templatelle  Wim van der Kuil - Leuven-Template.eu